{"data":{"norad_id":65934,"epoch":"2026-09-20T11:56:29.300640Z","epoch_age_seconds":103307,"freshness":"FRESH","line1":"1 65934U 25225AA  26263.49756135  .00013643  00000+0  41405-3 0  9995","line2":"2 65934  53.1611 339.4288 0001048  95.2961 264.8162 15.34410347 53366","mean_motion":15.34410347,"eccentricity":0.0001048,"inclination_deg":53.1611,"raan_deg":339.4288,"arg_perigee_deg":95.2961,"mean_anomaly_deg":264.8162,"bstar":0.00041405,"rev_number":5336,"period_min":93.847125237093,"perigee_km":461.95557008116,"apogee_km":463.38940374962,"semimajor_km":6840.8094869154,"source":"CELESTRAK","updated_at":"2026-09-21T09:00:35.767258Z"}}